This is the latest recevied weather packets stored in our database for station/object DB0RV-13. If no packets are shown the sender has not sent any weather packets the latest 1 day(s).
| Time | Temp. | Humidity | Pressure | Rain* | Wind** | Luminosity | Snow |
|---|---|---|---|---|---|---|---|
| 1777965302 | 11.67° C | 83% | 1008.9 hPa | - | 1.34 m/s, 242° | - | - |
| 1777965001 | 11.67° C | 82% | 1008.9 hPa | - | 0.89 m/s, 242° | - | - |
| 1777964702 | 11.67° C | 81% | 1008.9 hPa | - | 0.45 m/s, 217° | - | - |
| 1777964401 | 11.11° C | 82% | 1008.9 hPa | - | 0.89 m/s, 349° | - | - |
| 1777964101 | 11.11° C | 82% | 1008.9 hPa | - | 0.45 m/s, 300° | - | - |
| 1777963802 | 10.56° C | 83% | 1008.8 hPa | - | 0 m/s | - | - |
| 1777963501 | 10.56° C | 83% | 1009 hPa | - | 0 m/s | - | - |
| 1777963202 | 10.56° C | 82% | 1009 hPa | - | 0 m/s | - | - |
| 1777962901 | 10.56° C | 83% | 1009 hPa | - | 0 m/s | - | - |
| 1777962602 | 10° C | 83% | 1009 hPa | - | 0 m/s | - | - |
| 1777962301 | 10° C | 83% | 1009 hPa | - | 0.89 m/s, 116° | - | - |
| 1777962002 | 10° C | 83% | 1008.9 hPa | - | 0.89 m/s, 122° | - | - |
| 1777961701 | 10° C | 84% | 1009 hPa | - | 0.45 m/s, 134° | - | - |
| 1777961401 | 9.44° C | 83% | 1009.1 hPa | - | 0.89 m/s, 152° | - | - |
| 1777961101 | 9.44° C | 83% | 1009 hPa | - | 1.34 m/s, 134° | - | - |
| 1777960801 | 10° C | 83% | 1009.1 hPa | - | 0.45 m/s, 132° | - | - |
| 1777960502 | 10° C | 82% | 1009.2 hPa | - | 0.89 m/s, 131° | - | - |
| 1777960201 | 10° C | 83% | 1009.1 hPa | - | 0.45 m/s, 114° | - | - |
| 1777959902 | 9.44° C | 84% | 1009.2 hPa | - | 0.45 m/s, 194° | - | - |
| 1777959601 | 8.89° C | 85% | 1009.1 hPa | - | 0.45 m/s, 160° | - | - |
| 1777959302 | 8.89° C | 85% | 1009.1 hPa | - | 0.45 m/s, 101° | - | - |
| 1777959001 | 8.89° C | 86% | 1009.2 hPa | - | 0.45 m/s, 67° | - | - |
| 1777958702 | 8.33° C | 87% | 1009.1 hPa | - | 0 m/s | - | - |
| 1777958401 | 8.33° C | 88% | 1009.1 hPa | - | 0 m/s | - | - |
| 1777958102 | 7.78° C | 88% | 1009.1 hPa | - | 0 m/s | - | - |
* Rain since midnight (hover to see other rain measurements)
** Current wind speed in m/s (hover to see current wind gust speed)